Tracking 34142 objects as of 18-May-2026
HD Live streaming from Space Station
objects crossing your sky now

SPACEVAN-002

Track SPACEVAN-002 now!
10-day predictions


NORAD ID: 68424
Int'l Code: 2026-067J
Perigee: 516.5 km
Apogee: 521.3 km
Inclination: 97.5 °
Period: 94.9 minutes
Semi major axis: 6889 km
RCS: Unknown
Launch date: March 30, 2026
Source: France (FR)
Launch site: AIR FORCE WESTERN TEST RANGE (AFWTR)
Your satellite tracking list
Your tracking list is empty




NASA's NSSDC Master Catalog

Two Line Element Set (TLE):
1 68424U 26067J   26137.82467251  .00004381  00000-0  21847-3 0  9990
2 68424  97.4510  96.7137 0003464 117.9634 242.1951 15.18046820  7335
Source of the keplerian elements: AFSPC